Regional Weather Roundup
Issued by NWS Wakefield, VA

Home | Current Version | Previous Version | Graphics & Text | Print | Product List | Glossary On
Versions: 1 2 3 4 5 6 7 8 9 10 11 12 13 14 15 16 17 18 19 20 21 22 23 24 25 26 27
000
ASUS41 KAKQ 220610
RWRAKQ

REGIONAL WEATHER ROUNDUP
NATIONAL WEATHER SERVICE WAKEFIELD VA
200 AM EDT TUE APR 22 2014

Note: "fair" indicates few or no clouds below 12,000 feet with no
significant weather and/or obstructions to visibility. * = Denotes
station may not report precipitation (e.g., rain,snow,etc.),
thunder or fog.

VAZ042-051-052>054-056-220700-
NORTHERN VIRGINIA

CITY           SKY/WX    TMP DP  RH WIND       PRES   REMARKS
WASH NATIONAL  MOCLDY    54  45  71 S7        29.86F
DULLES         MOCLDY    52  38  58 S6        29.84F
FORT BELVOIR   FAIR      46  41  83 N1        29.86F
QUANTICO       FAIR      56  46  69 SW7       29.87F
FREDERICKSBRG* FAIR      54  46  76 S3        29.85F
STAFFORD*      FAIR      51  43  74 CALM      29.90F
WARRENTON      FAIR      51  44  79 CALM      29.84F
CULPEPER*      FAIR      48  41  76 CALM      29.85F
MANASSAS*      FAIR      46  45  93 SE3       29.85F
LEESBURG*      FAIR      55  41  58 S6        29.85F
WINCHESTER     FAIR      57  32  38 S3        29.81F
$$

VAZ048-049-060>072-079>083-220700-
CENTRAL AND SOUTH CENTRAL VIRGINIA...AND NORTH CENTRAL NORTH CAROLINA

CITY           SKY/WX    TMP DP  RH WIND       PRES   REMARKS
RICHMOND       FAIR      50  45  83 S3        29.89F
CHESTERFIELD*  NOT AVBL
HANOVER        FAIR      51  45  79 S5        29.89F
TAPPAHANNOCK*  FAIR      49  45  87 S3        29.88F
CHARLOTTSVILLE FAIR      56  32  40 CALM      29.84F
ORANGE*        FAIR      48  36  61 CALM      29.86F
LOUISA*        FAIR      54  36  50 SE3       29.84F
FARMVILLE*     FAIR      54  37  54 CALM      29.85F
SOUTH HILL*    FAIR      48  43  81 CALM      29.93F
ROANOKE RAPIDS FAIR      45  43  93 CALM      29.90F
RALEIGH        MOCLDY    49  40  71 CALM      29.89F
$$

VAZ088>098-220700-
SOUTHEAST VIRGINIA

CITY           SKY/WX    TMP DP  RH WIND       PRES   REMARKS
NORFOLK        FAIR      47  44  90 CALM      29.89F
VIRGINIA BEACH FAIR      42  40  92 SW3       29.88F
NORFOLK NAVAL  FAIR      47  45  93 CALM      29.90F
WEST POINT*    FAIR      50  46  88 CALM      29.90F
NEWPORT NEWS   FAIR      47  43  86 CALM      29.89F FOG
LANGLEY AFB    FAIR      46  46 100 CALM      29.89F
FORT EUSTIS    FAIR      48  46  92 CALM      29.88F
WILLIAMSBURG*  FAIR      52  48  87 CALM      29.90F
FRANKLIN*      FAIR      46 N/A N/A CALM      29.90F
WAKEFIELD      FAIR      45  42  89 CALM      29.90F
$$

VAZ020-022-025-037-045-220700-
WESTERN AND SOUTHWEST VIRGINIA

CITY           SKY/WX    TMP DP  RH WIND       PRES   REMARKS
STAUNTON*      FAIR      52  35  52 CALM      29.87F
HOT SPRINGS VA FAIR      55  36  47 W8        29.97F
LYNCHBURG      FAIR      58  38  47 CALM      29.87F
DANVILLE       FAIR      50  41  71 CALM      29.87F
MARTINSVILLE     N/A     50  46  84 CALM      29.90F
ROANOKE        CLOUDY    58  38  47 CALM      29.89F
BLACKSBURG     FAIR      57  46  67 CALM      29.93S
DUBLIN*        FAIR      55  44  67 SW8       29.91F
MARION*        FAIR      57  42  56 SW7       29.96F
HILLSVILLE*    FAIR      57  36  44 SW3       29.96F
RICHLANDS*     FAIR      63  42  46 CALM      29.94F
WISE*          FAIR      59  39  47 CALM      29.95F
ABINGDON*      FAIR      55  45  70 CALM      29.94F
$$

MDZ021>025-VAZ099-100-220700-
SOUTHERN MARYLAND AND THE DELMARVA PENINSULA

CITY           SKY/WX    TMP DP  RH WIND       PRES   REMARKS
PATUXENT RIVER FAIR      50  46  86 S5        29.88F
BAY BRIDGE APT FAIR      54  50  87 S7        29.87F
LEONARDTOWN    FAIR      50  45  81 S3        29.89F
DOVER          FAIR      46  46 100 S5        29.83F
GEORGETOWN     FAIR      45  42  89 CALM      29.88F
EASTON         FAIR      51  50  97 S5        29.91F
CAMBRIDGE      FAIR      48  45  87 CALM      29.87F
SALISBURY      FAIR      45  41  86 CALM      29.88F
OCEAN CITY     FAIR      40  38  93 CALM      29.88F
WALLOPS ISLAND FAIR      45  43  93 CALM      29.88F
ACCOMACK*      FAIR      43  39  87 CALM      29.88F
$$

NCZ012>017-030>032-220700-
EASTERN NORTH CAROLINA

CITY           SKY/WX    TMP DP  RH WIND       PRES   REMARKS
ELIZABETH CITY FAIR      46  44  93 CALM      29.89F FOG
AHOSKIE*       FAIR      44  42  95 CALM      29.90F
EDENTON*       FAIR      46  45  96 CALM      29.90F
CURRITUCK*     FAIR      43  40  91 CALM      29.89F
KILL DEVIL HLS FAIR      47  46  97 CALM      29.88F
MANTEO         FAIR      48  47  97 CALM      29.90F
CAPE HATTERAS  FAIR      51  51 100 N5        29.89F
GOLDSBORO      FAIR      47  46  97 CALM      29.88F
WASHINGTON     FAIR      49  45  85 CALM      29.91F
GREENVILLE     FOG       48  46  93 CALM      29.92F VSB 1/2
NEW BERN       FOG       48  46  93 CALM      29.91F VSB 3/4
WILMINGTON     FAIR      54  51  90 CALM      29.91F
$$

VAZ048-220700-
ELSEWHERE

CITY           SKY/WX    TMP DP  RH WIND       PRES   REMARKS
HARRISBURG PA  MOCLDY    56  37  49 S3        29.82F
BALTIMORE      MOCLDY    48  40  73 CALM      29.85F
ANNAPOLIS      FAIR      53  50  89 S9        29.86F
ANDREWS AFB    FAIR      50  44  80 S6        29.86F
WILMINGTON DE  FAIR      50  46  86 S6        29.86F
PHILADELPHIA   FAIR      51  44  77 SW7       29.87F
WILDWOOD NJ*   FAIR      45  39  81 CALM      29.88F
ATLANTIC CITY  FAIR      44  40  85 CALM      29.87F
HENDERSON NC   FAIR      50  38  65 SW6       29.89F
GREENSBORO     MOCLDY    59  36  42 SW7       29.88F
ROCKY MOUNT    FAIR      45  43  93 CALM      29.90F
FAYETTEVILLE   FAIR      53  47  79 SW5       29.90F
CHARLOTTE      FAIR      55  45  68 CALM      29.91F
$$

VAZ100-220700-
MARINE

STATION/POSITION TIME  TEMP    WIND        PRES    WAVE   SWELL
                       AIR SEA DIR/SP/G            HT/PER HT/PER
                 (UTC) (F)     (DEG/KT/KT) (MB)    (FT/S) (FT/S)
44066 TX TWR #4  0600   46 45  120/  2/  4 1010.9F   5/10   5/10
CAPE MAY NJ      0600   49 55  210/  3/  5 1011.5F
LEWES DE         0600   47 48  190/  3/  4 1010.9F
15NM E FENWICK I 0600   47 47              1011.5F   5/10
OCEAN-CITY-INLET 0600   47 49   CALM  /  1 1011.5F
WACHAPREAGUE VA  0600   45 56  320/  2/  3 1011.8F
THOMAS POINT MD  0600   53 54  180/ 15/ 17 1011.6F
GOOSES REEF MD   0600   53     210/ 10/ 12   N/A
COVE POINT MD    0600   53     200/ 10/ 11 1011.7F
SOLOMONS ISLAND  0600      54                N/A
BISHOPS HEAD MD  0600   54 58  160/  8/  9 1011.5F
PINEY POINT MD   0600          200/  9/ 11   N/A
POTOMAC MD       0600   53     190/  6/  8 1011.6F
CAMBRIDGE MD     0600   51 57  190/  4/  6 1011.2F
LEWISETTA VA     0600   52 57  210/  6/  7 1011.6F
RAPPAHANNOCK LGT 0600          130/  6/  7 1012.5F
STINGRAY PT      0600   52     180/  6/  8 1012.4F
YORK RVR RNG VA  0600   53     190/  6/  6 1011.6F
YORKTOWN VA      0600   50 55  210/  2/  3 1012.1F
JAMESTOWN VA     0600   53     190/  4/  6   N/A
DOMINION TERM VA 0600   53     160/  4/  4 1012.4F
KIPTOPEKE VA     0600      54     CALM       N/A
CHES BAY BRIDGE  0600   51 53  180/  2/  2 1012.1F
CAPE HENRY VA    0600   49     170/  1/  1   N/A
CHESAPEAKE LGHT  0500   48      60/  5/  6 1013.3F
WILLOUBY STN VA  0600   50     180/  2/  2 1011.4F
S CRANEY ISL VA  0600          170/  2/  3 1012.4S
CAPE HENRY BUOY  0600      47                N/A     5/ 9   2/11
1ST LANDING BUOY 0600      47                N/A     4/10   5/10
64NM E OF VA BCH 0600   48 48  330/  8/ 10 1011.4F   6/10   7/10
DUCK PIER NC     0600   49 49  350/  3/  4 1011.3F
44100 DUCK FRF   0600      48                N/A     6/ 9   2/11
44056 DUCK FRF   0600      49                N/A     5/10   2/11
OREGON INLET NC  0600   47 52  350/  3/  5 1012.2F
HATTERAS NC      0600   54 57  360/  7/  9 1012.3F
DIAMOND SHLS NC  0600   55 75  330/ 16/ 17 1011.6F   7/ 9   7/ 9
CAPE LOOKOUT NC  0500   57      10/  5/  6 1013.1F
FRYING PAN SHLS  0600   65 67  270/  6/  6 1012.6F   5/ 9   5/ 9
$$



USA.gov is the U.S. government's official web portal to all federal, state and local government web resources and services.